Location: Deer Lodge Site
(39.6809°N, 119.9392°W)
Time: 14:23:34
(UTC-07:00)

Amateur Radio Satellites - All Passes

Search period start: 17 April 2014 13:53
Search period end: 18 April 2014 13:53
Location: Deer Lodge Site, 39.6809°N, 119.9392°W

Satellite Date Start Highest point End Downlink Frequencies (MHz)
Time Altitude Azimuth
Oscar 19 17 Apr 13:56:24 14:01:31 82° 257° (WSW) 14:06:43 437.125 CW, 437.150 USB
Oscar 16 17 Apr 14:04:22 14:09:26 64° 259° (WSW) 14:14:34 437.025 USB, Beacon 2401.1428
KITSAT 1 17 Apr 14:05:24 14:12:34 36° 252° (WSW) 14:19:42 435.175 FM
TMSAT-1 17 Apr 14:07:22 14:10:24 16° 62° (ENE) 14:13:26 436.925 FM
AO-7 17 Apr 14:08:10 14:10:03 11° 44° (NE) 14:11:56 29.400 - 29.500 MHz
AO-Echo 17 Apr 14:15:32 14:20:45 65° 74° (ENE) 14:25:53 ?
Uribyol 2 17 Apr 14:35:38 14:40:44 61° 259° (WSW) 14:45:52 436.500 FM
Uosat F 17 Apr 14:37:42 14:37:56 10° 58° (ENE) 14:38:09 435.120 FM
Gurwin Techsat 1B 17 Apr 14:54:55 15:00:07 59° 73° (ENE) 15:05:21 435.225 FM
AO-27 17 Apr 15:15:42 15:20:03 27° 264° (W) 15:24:26 436.795 MHz FM
OPAL 17 Apr 15:17:08 15:21:59 38° 100° (E) 15:26:48 ?
JAS-1B 17 Apr 15:23:29 15:31:19 48° 70° (ENE) 15:37:55 435.800 - 435.900 CW/SSB
ITAMSAT 1 17 Apr 15:27:31 15:31:26 22° 266° (W) 15:35:22 435.822 SSB
RS-15 17 Apr 15:27:46 15:38:08 45° 45° (NE) 15:48:39 29.354 - 29.394 USB, Beacon 29.352 USB
TMSAT-1 17 Apr 15:44:27 15:49:43 69° 258° (WSW) 15:55:01 436.925 FM
AO-7 17 Apr 15:53:01 16:00:54 52° 65° (ENE) 16:08:49 29.400 - 29.500 MHz
ISS 17 Apr 15:54:37 15:57:46 40° 136° (SE) 16:00:57 145.800 FM
AO-Echo 17 Apr 15:57:04 15:59:54 15° 269° (W) 16:02:44 ?
Uosat F 17 Apr 16:10:51 16:15:53 83° 75° (ENE) 16:20:56 435.120 FM
SO-50 17 Apr 16:12:44 16:17:10 65° 119° (ESE) 16:21:38 436.795 FM
Gurwin Techsat 1B 17 Apr 16:37:12 16:40:28 16° 269° (W) 16:43:44 435.225 FM
OPAL 17 Apr 16:56:21 17:00:40 27° 296° (WNW) 17:04:58 ?
Hamsat 17 Apr 17:08:34 17:09:19 10° 63° (ENE) 17:10:04 145.90 MHz
UOSAT-12 17 Apr 17:09:57 17:11:59 13° 107° (ESE) 17:14:03 437.025 FM, 437.400 FM
JAS-1B 17 Apr 17:14:31 17:21:55 34° 262° (W) 17:28:20 435.800 - 435.900 CW/SSB
ISS 17 Apr 17:31:43 17:34:37 26° 333° (NNW) 17:37:31 145.800 FM
JAS-2 17 Apr 17:37:23 17:38:31 11° 60° (ENE) 17:39:38 435.800 - 435.900 CW/SSB, 435.910 FM
RS-15 17 Apr 17:40:12 17:50:45 56° 248° (WSW) 18:01:37 29.354 - 29.394 USB, Beacon 29.352 USB
AO-7 17 Apr 17:46:33 17:53:52 35° 262° (W) 18:01:16 29.400 - 29.500 MHz
Uosat F 17 Apr 17:54:58 17:55:16 10° 271° (W) 17:55:34 435.120 FM
SO-50 17 Apr 17:55:16 17:58:10 17° 317° (NW) 18:01:06 436.795 FM
Hamsat 17 Apr 18:40:32 18:44:42 68° 259° (W) 18:48:55 145.90 MHz
UOSAT-12 17 Apr 18:47:01 18:51:32 66° 304° (NW) 18:56:10 437.025 FM, 437.400 FM
ISS 17 Apr 19:11:03 19:12:16 12° 353° (N) 19:13:28 145.800 FM
Saudisat 1A 17 Apr 19:12:12 19:14:09 13° 40° (NE) 19:16:05 436.775 MHz
JAS-2 17 Apr 19:16:54 19:22:56 83° 75° (ENE) 19:28:22 435.800 - 435.900 CW/SSB, 435.910 FM
STRAND 1 17 Apr 19:30:29 19:35:30 57° 101° (E) 19:40:30 ?
SO-67 17 Apr 19:49:01 19:52:25 52° 260° (W) 19:55:51 435.3500 MHz FM
HO-68 17 Apr 20:29:48 20:36:21 41° 65° (ENE) 20:42:56 435.675 MHz FM
UOSAT-12 17 Apr 20:31:22 20:32:37 11° 324° (NW) 20:33:52 437.025 FM, 437.400 FM
ISS 17 Apr 20:48:21 20:50:11 14° 14° (NNE) 20:52:01 145.800 FM
Saudisat 1A 17 Apr 20:49:59 20:54:25 88° 59° (ENE) 20:58:47 436.775 MHz
JAS-2 17 Apr 21:06:31 21:08:29 12° 269° (W) 21:10:24 435.800 - 435.900 CW/SSB, 435.910 FM
STRAND 1 17 Apr 21:10:59 21:14:13 17° 297° (WNW) 21:17:27 ?
FUNcube-1 17 Apr 21:33:06 21:34:56 13° 64° (ENE) 21:36:45 145.950 - 145.970 MHz USB
Oscar 11 17 Apr 21:45:43 21:49:56 58° 74° (ENE) 21:54:11 145.825 FM, Beacon 2401.500 USB
HO-68 17 Apr 22:17:33 22:24:02 37° 262° (W) 22:30:34 435.675 MHz FM
MaSat-1 17 Apr 22:17:40 22:20:43 81° 294° (WNW) 22:23:24 437.345 MHz
ISS 17 Apr 22:24:19 22:27:35 46° 33° (NNE) 22:30:50 145.800 FM
FUNcube-1 17 Apr 23:06:45 23:10:54 54° 260° (W) 23:15:01 145.950 - 145.970 MHz USB
Oscar 11 17 Apr 23:25:04 23:26:29 11° 270° (W) 23:27:54 145.825 FM, Beacon 2401.500 USB
ISS 18 Apr 00:01:40 00:04:06 19° 229° (SW) 00:06:32 145.800 FM
Sapphire 18 Apr 00:04:11 00:07:35 17° 104° (ESE) 00:10:59 437.095 MHz 1200 baud AX-25 AFSK
SO-50 18 Apr 00:45:09 00:49:38 47° 54° (NE) 00:54:11 436.795 FM
PCSat 18 Apr 00:47:09 00:52:16 45° 112° (ESE) 00:57:25 145.825 MHz
UOSAT-12 18 Apr 01:38:55 01:41:13 13° 39° (NE) 01:43:31 437.025 FM, 437.400 FM
Sapphire 18 Apr 01:45:05 01:50:26 62° 301° (WNW) 01:55:50 437.095 MHz 1200 baud AX-25 AFSK
AO-27 18 Apr 01:51:25 01:53:43 13° 90° (E) 01:56:01 436.795 MHz FM
ITAMSAT 1 18 Apr 02:01:47 02:05:00 16° 92° (E) 02:08:12 435.822 SSB
Oscar 19 18 Apr 02:09:05 02:13:56 38° 98° (E) 02:18:45 437.125 CW, 437.150 USB
Oscar 16 18 Apr 02:16:56 02:21:59 49° 100° (E) 02:27:00 437.025 USB, Beacon 2401.1428
AO-Echo 18 Apr 02:24:52 02:28:26 21° 93° (E) 02:31:56 ?
SO-50 18 Apr 02:26:33 02:29:53 20° 249° (WSW) 02:33:15 436.795 FM
OPAL 18 Apr 02:31:16 02:36:11 61° 71° (ENE) 02:41:13 ?
PCSat 18 Apr 02:31:20 02:35:52 27° 310° (NW) 02:40:25 145.825 MHz
KITSAT 1 18 Apr 02:37:12 02:44:28 38° 108° (ESE) 02:51:46 435.175 FM
Uribyol 2 18 Apr 02:49:13 02:54:15 51° 100° (E) 02:59:17 436.500 FM
Gurwin Techsat 1B 18 Apr 03:12:35 03:16:56 25° 95° (E) 03:21:15 435.225 FM
UOSAT-12 18 Apr 03:17:23 03:22:08 83° 58° (ENE) 03:26:49 437.025 FM, 437.400 FM
AO-27 18 Apr 03:28:34 03:33:44 71° 286° (WNW) 03:38:52 436.795 MHz FM
Sapphire 18 Apr 03:33:18 03:34:59 11° 321° (NW) 03:36:41 437.095 MHz 1200 baud AX-25 AFSK
ITAMSAT 1 18 Apr 03:39:46 03:44:50 57° 288° (WNW) 03:49:53 435.822 SSB
Oscar 19 18 Apr 03:48:51 03:53:04 26° 294° (WNW) 03:57:16 437.125 CW, 437.150 USB
Oscar 16 18 Apr 03:57:12 04:00:57 21° 296° (WNW) 04:04:42 437.025 USB, Beacon 2401.1428
AO-7 18 Apr 03:57:34 04:02:06 15° 90° (E) 04:06:37 29.400 - 29.500 MHz
TMSAT-1 18 Apr 04:01:13 04:06:23 52° 100° (E) 04:11:31 436.925 FM
AO-Echo 18 Apr 04:02:56 04:07:22 38° 290° (WNW) 04:11:42 ?
OPAL 18 Apr 04:12:44 04:15:29 15° 267° (W) 04:18:17 ?
Uosat F 18 Apr 04:20:01 04:24:15 27° 96° (E) 04:28:26 435.120 FM
Uribyol 2 18 Apr 04:29:42 04:33:20 20° 296° (WNW) 04:36:58 436.500 FM
KITSAT 1 18 Apr 04:31:51 04:39:39 50° 308° (NW) 04:47:31 435.175 FM
Gurwin Techsat 1B 18 Apr 04:52:05 04:56:59 39° 291° (WNW) 05:01:52 435.225 FM
JAS-1B 18 Apr 04:59:35 05:05:17 75° 103° (ESE) 05:11:10 435.800 - 435.900 CW/SSB
UOSAT-12 18 Apr 05:00:51 05:01:34 10° 254° (WSW) 05:02:16 437.025 FM, 437.400 FM
AO-40 18 Apr 05:31:57 08:17:13 35° 189° (S) 13:43:26 Beacon 2401.320
TMSAT-1 18 Apr 05:42:08 05:45:54 20° 296° (WNW) 05:49:39 436.925 FM
AO-7 18 Apr 05:47:35 05:55:57 84° 107° (ESE) 06:04:18 29.400 - 29.500 MHz
RS-15 18 Apr 05:52:40 06:01:22 27° 103° (ESE) 06:09:49 29.354 - 29.394 USB, Beacon 29.352 USB
Uosat F 18 Apr 05:58:35 06:03:02 33° 292° (WNW) 06:07:27 435.120 FM
Hamsat 18 Apr 06:27:48 06:31:15 23° 94° (E) 06:34:42 145.90 MHz
KITSAT 1 18 Apr 06:32:59 06:37:19 15° 333° (NNW) 06:41:39 435.175 FM
MaSat-1 18 Apr 06:42:44 06:44:11 13° 58° (ENE) 06:45:42 437.345 MHz
STRAND 1 18 Apr 06:45:34 06:50:40 77° 75° (ENE) 06:55:48 ?
JAS-1B 18 Apr 06:52:32 06:55:17 14° 302° (WNW) 06:58:04 435.800 - 435.900 CW/SSB
SO-67 18 Apr 07:16:17 07:17:28 11° 91° (E) 07:18:39 435.3500 MHz FM
AO-7 18 Apr 07:41:49 07:47:46 23° 306° (NW) 07:53:44 29.400 - 29.500 MHz
RS-15 18 Apr 08:01:10 08:12:33 79° 303° (WNW) 08:23:35 29.354 - 29.394 USB, Beacon 29.352 USB
Hamsat 18 Apr 08:03:26 08:07:14 30° 290° (WNW) 08:11:02 145.90 MHz
JAS-2 18 Apr 08:10:41 08:16:04 77° 103° (ESE) 08:21:59 435.800 - 435.900 CW/SSB, 435.910 FM
MaSat-1 18 Apr 08:19:54 08:22:35 28° 248° (WSW) 08:25:42 437.345 MHz
STRAND 1 18 Apr 08:28:43 08:30:24 12° 270° (W) 08:32:06 ?
SO-67 18 Apr 08:47:33 08:50:48 37° 286° (WNW) 08:54:02 435.3500 MHz FM
Sapphire 18 Apr 08:52:01 08:55:05 15° 42° (NE) 08:58:07 437.095 MHz 1200 baud AX-25 AFSK
PCSat 18 Apr 09:35:56 09:40:47 32° 52° (NE) 09:45:36 145.825 MHz
Oscar 11 18 Apr 09:36:36 09:37:59 11° 90° (E) 09:39:23 145.825 FM, Beacon 2401.500 USB
HO-68 18 Apr 09:45:20 09:52:11 45° 100° (E) 09:58:59 435.675 MHz FM
JAS-2 18 Apr 09:58:03 10:00:39 14° 298° (WNW) 10:03:20 435.800 - 435.900 CW/SSB, 435.910 FM
RS-15 18 Apr 10:17:54 10:26:54 27° 329° (NNW) 10:35:49 29.354 - 29.394 USB, Beacon 29.352 USB
KITSAT 1 18 Apr 10:31:06 10:36:46 20° 35° (NE) 10:42:24 435.175 FM
Sapphire 18 Apr 10:33:51 10:39:19 87° 63° (ENE) 10:44:43 437.095 MHz 1200 baud AX-25 AFSK
PANSAT 18 Apr 10:52:28 10:54:47 15° 177° (S) 10:57:05 not established
Saudisat 1A 18 Apr 10:56:17 11:00:05 28° 113° (ESE) 11:03:54 436.775 MHz
FUNcube-1 18 Apr 10:56:56 11:00:38 28° 97° (E) 11:04:23 145.950 - 145.970 MHz USB
Oscar 11 18 Apr 11:10:15 11:14:33 60° 286° (WNW) 11:18:50 145.825 FM, Beacon 2401.500 USB
PCSat 18 Apr 11:19:17 11:24:12 36° 250° (WSW) 11:29:05 145.825 MHz
HO-68 18 Apr 11:33:21 11:39:40 35° 297° (WNW) 11:45:59 435.675 MHz FM
Sapphire 18 Apr 12:20:16 12:21:55 11° 258° (WSW) 12:23:33 437.095 MHz 1200 baud AX-25 AFSK
KITSAT 1 18 Apr 12:25:35 12:33:42 72° 58° (ENE) 12:41:44 435.175 FM
PANSAT 18 Apr 12:32:31 12:34:18 13° 190° (S) 12:36:05 not established
FUNcube-1 18 Apr 12:33:34 12:36:56 23° 291° (WNW) 12:40:21 145.950 - 145.970 MHz USB
Saudisat 1A 18 Apr 12:35:37 12:39:36 31° 310° (NW) 12:43:36 436.775 MHz
RS-15 18 Apr 12:37:49 12:44:41 18° 6° (N) 12:51:33 29.354 - 29.394 USB, Beacon 29.352 USB
AO-27 18 Apr 13:08:21 13:12:02 20° 64° (ENE) 13:15:43 436.795 MHz FM
ITAMSAT 1 18 Apr 13:18:51 13:22:57 24° 65° (ENE) 13:27:03 435.822 SSB
Oscar 19 18 Apr 13:25:08 13:30:05 51° 72° (ENE) 13:35:04 437.125 CW, 437.150 USB
Oscar 16 18 Apr 13:33:05 13:38:09 66° 74° (ENE) 13:43:16 437.025 USB, Beacon 2401.1428
AO-Echo 18 Apr 13:36:33 13:40:58 28° 68° (ENE) 13:45:18 ?
